Location: Plainartige
(45.6866°N, 1.7993°E)
Time: 04:03:10
(UTC+00:00)

Vanguard 1 - Pass Details

Date: 01 June 2022
Orbit: 649 x 3833 km, 34.2° (Epoch: 06 July)

Event Time Altitude Azimuth Distance (km) Brightness Sun altitude
Exits shadow 00:13:06 22° 220° (SW) 3,461 12.4 -22.1°
Maximum altitude 00:21:08 48° 159° (SSE) 3,095 12.1 -21.9°
Drops below altitude 10° 00:39:38 10° 94° (E) 6,610 14.3 -21.4°
Sets 00:45:36 0° 90° (E) 7,863 14.8 -21.1°
